Temp
-13 -13 -12 -12 -12 -12 -13 -13 -12 -13 -13 -13 -13 -13 -14 -14 -13 -13 -13 -14 -14 -14 -14 -14 -14 -14 -14 -15 -15 -16 -16 -16 -17 -18 -19 -19 -20 -20 -21 -23 -25 -26 -26 -26
-13 -13 -13 -13 -13 -13 -13 -13 -13 -13 -13 -13 -13 -14 -14 -14 -14 -14 -14 -14 -14 -14 -14 -14 -14 -15 -15 -15 -15 -16 -16 -17 -18 -19 -19 -20 -20 -22 -23 -24 -26 -27 -27 -26
-13 -13 -13 -13 -13 -13 -13 -13 -13 -14 -14 -13 -13 -13 -14 -14 -14 -14 -14 -14 -14 -14 -14 -15 -15 -15 -15 -15 -16 -17 -17 -18 -19 -19 -20 -21 -21 -23 -24 -26 -26 -27 -26 -26
-13 -13 -13 -14 -14 -14 -14 -14 -14 -14 -14 -14 -14 -13 -14 -14 -14 -14 -14 -15 -15 -15 -14 -15 -15 -15 -15 -16 -16 -17 -18 -18 -19 -20 -20 -21 -21 -23 -24 -26 -26 -27 -27 -27
-12 -13 -13 -13 -14 -14 -14 -14 -14 -14 -14 -14 -13 -14 -13 -14 -15 -15 -15 -15 -15 -15 -15 -15 -15 -15 -16 -16 -17 -18 -19 -19 -20 -20 -21 -21 -22 -24 -25 -26 -27 -27 -27 -27
-13 -13 -13 -13 -14 -14 -14 -14 -15 -14 -14 -13 -14 -14 -13 -15 -15 -15 -15 -15 -15 -15 -15 -15 -15 -16 -16 -17 -17 -18 -19 -19 -20 -21 -21 -21 -22 -24 -26 -27 -27 -27 -27 -27
-13 -13 -13 -13 -13 -14 -14 -15 -15 -14 -14 -14 -14 -13 -13 -15 -15 -15 -15 -15 -15 -15 -15 -15 -15 -16 -17 -17 -18 -19 -19 -20 -20 -21 -21 -22 -23 -24 -26 -27 -27 -26 -27 -27
-14 -13 -13 -13 -13 -14 -14 -14 -14 -14 -14 -14 -14 -13 -14 -14 -15 -15 -15 -16 -16 -15 -15 -15 -16 -17 -17 -17 -19 -19 -19 -20 -21 -21 -21 -22 -23 -25 -26 -27 -27 -27 -27 -27
-14 -14 -13 -13 -14 -14 -13 -14 -14 -14 -14 -14 -14 -14 -14 -15 -15 -15 -16 -16 -16 -16 -15 -16 -16 -17 -17 -18 -19 -19 -20 -20 -21 -21 -22 -22 -24 -25 -27 -27 -27 -27 -27 -27
-14 -14 -14 -14 -14 -14 -14 -14 -14 -14 -14 -14 -13 -14 -15 -15 -15 -16 -16 -16 -16 -16 -15 -16 -17 -17 -17 -19 -19 -20 -20 -21 -21 -22 -22 -23 -24 -25 -27 -27 -27 -28 -28 -27
-15 -14 -14 -14 -14 -14 -14 -14 -15 -15 -14 -15 -13 -14 -14 -15 -15 -16 -16 -16 -16 -15 -15 -16 -16 -17 -18 -19 -19 -20 -20 -21 -21 -22 -22 -24 -24 -25 -27 -27 -28 -28 -28 -28
-15 -15 -15 -15 -15 -14 -14 -15 -15 -16 -16 -15 -13 -12 -14 -16 -16 -17 -16 -16 -16 -15 -16 -16 -17 -17 -18 -19 -19 -20 -21 -21 -22 -22 -23 -24 -25 -26 -27 -28 -28 -28 -28 -28
-15 -14 -15 -16 -15 -15 -15 -16 -15 -16 -15 -14 -15 -13 -15 -15 -16 -17 -17 -16 -15 -16 -16 -16 -17 -18 -19 -19 -20 -20 -21 -21 -22 -22 -23 -24 -25 -26 -27 -28 -28 -28 -28 -28
-15 -15 -15 -16 -17 -16 -15 -16 -15 -16 -15 -15 -14 -15 -15 -16 -16 -16 -16 -16 -16 -16 -16 -17 -17 -18 -19 -19 -20 -20 -21 -22 -22 -23 -23 -24 -25 -26 -28 -28 -28 -28 -28 -28
-15 -15 -16 -16 -17 -17 -15 -15 -16 -15 -15 -15 -15 -15 -15 -17 -16 -15 -15 -16 -16 -16 -16 -17 -17 -18 -19 -19 -20 -21 -21 -22 -22 -23 -24 -25 -25 -26 -28 -28 -28 -28 -28 -28
-15 -15 -16 -16 -16 -16 -15 -15 -14 -14 -15 -15 -16 -15 -17 -16 -16 -16 -16 -16 -16 -16 -17 -17 -17 -18 -19 -19 -20 -21 -21 -22 -23 -23 -24 -25 -25 -26 -28 -28 -28 -28 -28 -29
-15 -16 -16 -14 -15 -15 -13 -13 -15 -15 -15 -16 -15 -16 -16 -16 -16 -16 -16 -16 -16 -16 -17 -17 -17 -18 -19 -19 -20 -21 -22 -22 -23 -24 -24 -25 -26 -27 -28 -28 -28 -28 -28 -28
-16 -16 -17 -15 -16 -14 -12 -13 -14 -14 -15 -16 -16 -16 -16 -16 -16 -16 -16 -16 -16 -16 -16 -17 -17 -18 -19 -20 -20 -21 -22 -22 -23 -24 -25 -25 -26 -27 -27 -28 -28 -28 -28 -28
-16 -16 -16 -15 -14 -13 -12 -13 -14 -14 -14 -16 -16 -16 -16 -16 -16 -16 -15 -16 -16 -16 -16 -16 -18 -18 -19 -20 -21 -21 -22 -23 -24 -24 -25 -26 -27 -27 -27 -28 -28 -29 -29 -29
-16 -16 -16 -15 -15 -13 -12 -14 -15 -15 -13 -16 -17 -16 -16 -16 -16 -16 -15 -15 -16 -16 -16 -16 -18 -19 -19 -20 -21 -21 -22 -23 -24 -24 -25 -26 -27 -27 -27 -28 -28 -29 -29 -29
-17 -17 -16 -16 -16 -13 -14 -15 -15 -16 -16 -16 -16 -16 -16 -16 -16 -16 -16 -16 -16 -16 -16 -17 -18 -19 -20 -20 -21 -22 -22 -23 -24 -24 -25 -26 -27 -27 -27 -27 -28 -29 -29 -29
-17 -17 -17 -17 -17 -14 -14 -16 -17 -17 -16 -16 -16 -16 -16 -16 -16 -16 -16 -16 -16 -16 -17 -18 -19 -19 -20 -21 -21 -22 -23 -24 -24 -25 -25 -26 -27 -27 -27 -27 -28 -29 -29 -30
-17 -16 -16 -16 -15 -16 -15 -16 -17 -17 -17 -17 -16 -16 -16 -16 -16 -16 -16 -16 -17 -16 -17 -18 -19 -20 -20 -21 -21 -22 -23 -24 -25 -25 -26 -26 -27 -27 -28 -28 -28 -29 -29 -30
-17 -17 -17 -17 -15 -16 -17 -17 -17 -17 -17 -17 -16 -16 -16 -16 -16 -16 -16 -17 -17 -17 -18 -19 -19 -20 -21 -21 -22 -23 -23 -24 -25 -25 -26 -26 -27 -28 -28 -29 -29 -29 -29 -30
-17 -17 -17 -17 -16 -16 -17 -17 -17 -17 -17 -17 -17 -17 -16 -16 -16 -16 -17 -17 -17 -17 -18 -19 -20 -21 -21 -22 -22 -23 -24 -24 -25 -25 -26 -27 -27 -28 -28 -29 -29 -29 -30 -30
-16 -16 -17 -16 -17 -17 -17 -17 -17 -17 -17 -17 -16 -16 -17 -16 -17 -17 -18 -18 -18 -18 -18 -19 -20 -21 -22 -22 -23 -23 -24 -24 -25 -26 -26 -27 -28 -28 -28 -29 -29 -30 -30 -30
Height
5791 5793 5794 5793 5793 5792 5792 5793 5793 5792 5790 5788 5788 5790 5787 5787 5785 5784 5780 5779 5776 5771 5767 5762 5757 5752 5745 5738 5730 5721 5712 5701 5690 5679 5668 5653 5639 5624 5607 5590 5578 5569 5560 5552
5785 5787 5787 5786 5787 5785 5786 5786 5787 5785 5784 5783 5782 5785 5783 5781 5780 5778 5775 5773 5769 5764 5761 5755 5750 5745 5738 5730 5722 5713 5702 5692 5681 5670 5658 5643 5627 5611 5595 5581 5568 5560 5552 5544
5778 5780 5779 5780 5780 5779 5778 5780 5780 5778 5776 5777 5776 5779 5777 5777 5773 5771 5769 5767 5762 5758 5755 5749 5744 5738 5731 5722 5714 5704 5694 5684 5674 5662 5648 5632 5617 5602 5590 5576 5564 5554 5545 5537
5771 5772 5772 5773 5774 5774 5773 5774 5772 5770 5770 5770 5768 5768 5772 5770 5770 5765 5762 5760 5756 5752 5748 5743 5737 5731 5723 5714 5706 5696 5686 5677 5666 5654 5641 5626 5612 5598 5583 5569 5557 5547 5539 5531
5766 5765 5765 5766 5767 5767 5766 5767 5766 5764 5762 5761 5762 5759 5768 5765 5763 5759 5755 5753 5749 5745 5741 5736 5731 5723 5715 5706 5698 5688 5679 5669 5659 5647 5634 5620 5604 5588 5574 5562 5552 5541 5532 5525
5758 5758 5759 5760 5759 5760 5760 5760 5758 5756 5755 5754 5757 5752 5758 5758 5756 5753 5749 5745 5742 5738 5734 5729 5723 5715 5707 5699 5690 5681 5672 5663 5652 5640 5627 5613 5599 5584 5570 5559 5549 5538 5528 5520
5751 5751 5752 5753 5753 5753 5754 5754 5751 5747 5746 5747 5749 5745 5751 5750 5748 5745 5741 5737 5734 5731 5727 5721 5715 5708 5700 5693 5684 5675 5666 5657 5646 5634 5621 5607 5593 5579 5564 5553 5544 5534 5524 5516
5744 5746 5746 5747 5747 5748 5747 5747 5745 5740 5739 5738 5739 5738 5745 5745 5741 5738 5734 5730 5727 5723 5719 5713 5707 5700 5693 5685 5677 5669 5661 5651 5640 5628 5615 5602 5588 5573 5560 5548 5539 5529 5521 5513
5737 5738 5739 5739 5740 5741 5742 5740 5739 5734 5731 5728 5732 5731 5737 5736 5734 5729 5727 5722 5719 5716 5711 5706 5699 5693 5686 5678 5671 5663 5655 5645 5634 5622 5610 5597 5583 5568 5555 5545 5535 5525 5518 5510
5732 5731 5733 5733 5733 5735 5734 5734 5732 5729 5723 5721 5721 5720 5729 5728 5725 5721 5717 5714 5710 5709 5704 5698 5691 5685 5678 5671 5665 5658 5650 5640 5628 5617 5606 5592 5579 5565 5552 5542 5531 5522 5513 5505
5723 5724 5727 5724 5726 5726 5726 5725 5724 5722 5718 5716 5714 5711 5719 5721 5717 5712 5709 5706 5703 5700 5695 5689 5684 5678 5672 5665 5659 5651 5643 5634 5624 5612 5601 5588 5574 5561 5549 5540 5530 5520 5510 5501
5714 5713 5715 5717 5717 5717 5717 5718 5717 5713 5712 5709 5706 5706 5713 5713 5707 5703 5699 5697 5696 5692 5688 5682 5677 5671 5665 5659 5652 5646 5637 5628 5618 5607 5597 5584 5570 5558 5547 5538 5528 5518 5508 5497
5706 5703 5705 5707 5710 5710 5709 5710 5708 5705 5703 5703 5700 5703 5704 5702 5698 5694 5691 5689 5688 5684 5680 5675 5670 5664 5659 5653 5646 5639 5631 5622 5613 5603 5591 5578 5566 5555 5544 5535 5526 5516 5505 5494
5695 5692 5695 5698 5699 5699 5699 5701 5698 5697 5695 5698 5695 5693 5701 5693 5688 5685 5682 5682 5679 5675 5671 5667 5663 5657 5652 5647 5640 5633 5626 5617 5608 5598 5586 5573 5563 5552 5542 5533 5524 5514 5503 5492
5682 5683 5685 5686 5687 5686 5686 5687 5689 5688 5692 5686 5692 5684 5693 5687 5681 5679 5678 5675 5672 5668 5664 5659 5655 5650 5645 5641 5634 5627 5620 5611 5603 5593 5582 5570 5559 5549 5539 5530 5522 5512 5502 5491
5670 5670 5672 5671 5675 5676 5673 5673 5679 5682 5682 5679 5680 5679 5679 5674 5675 5674 5671 5668 5665 5660 5656 5651 5647 5643 5638 5634 5628 5622 5614 5606 5598 5588 5577 5566 5556 5547 5537 5529 5520 5511 5500 5489
5658 5658 5660 5660 5666 5667 5657 5669 5671 5673 5673 5674 5669 5673 5668 5666 5666 5665 5662 5659 5656 5651 5647 5643 5640 5636 5632 5627 5622 5616 5608 5600 5593 5582 5573 5562 5553 5544 5535 5526 5517 5508 5498 5488
5646 5647 5647 5647 5652 5649 5658 5657 5661 5661 5663 5666 5661 5663 5659 5658 5657 5658 5653 5648 5646 5642 5638 5634 5632 5629 5625 5620 5615 5609 5601 5594 5587 5578 5569 5558 5550 5541 5532 5523 5514 5506 5497 5487
5633 5634 5636 5637 5638 5643 5640 5648 5651 5649 5653 5660 5653 5652 5649 5649 5647 5649 5641 5639 5636 5633 5629 5627 5624 5622 5617 5613 5608 5602 5595 5589 5582 5573 5564 5555 5546 5538 5529 5519 5510 5503 5495 5486
5618 5621 5625 5626 5628 5630 5635 5639 5637 5637 5634 5649 5640 5639 5638 5637 5637 5637 5632 5630 5626 5623 5620 5618 5616 5614 5609 5605 5600 5595 5589 5583 5576 5568 5560 5551 5543 5536 5527 5517 5509 5501 5494 5486
5603 5606 5609 5614 5613 5619 5625 5624 5625 5625 5633 5624 5629 5629 5627 5626 5627 5626 5622 5620 5617 5614 5611 5609 5608 5605 5601 5598 5593 5588 5582 5576 5569 5562 5554 5546 5540 5531 5523 5514 5506 5498 5491 5483
5588 5593 5596 5598 5602 5605 5616 5615 5615 5616 5613 5615 5614 5613 5613 5615 5615 5614 5611 5610 5607 5604 5601 5600 5599 5597 5593 5589 5586 5581 5575 5569 5564 5557 5549 5542 5535 5528 5521 5511 5502 5495 5488 5481
5568 5578 5584 5585 5591 5595 5596 5599 5600 5603 5603 5604 5603 5601 5602 5604 5604 5603 5600 5599 5597 5595 5593 5591 5591 5588 5585 5582 5578 5573 5568 5563 5557 5551 5544 5536 5530 5524 5516 5508 5500 5492 5485 5478
5559 5565 5566 5569 5580 5582 5582 5587 5586 5588 5590 5589 5589 5589 5590 5593 5593 5592 5590 5589 5588 5586 5585 5583 5582 5580 5577 5574 5570 5565 5560 5555 5551 5545 5537 5531 5525 5519 5512 5504 5497 5489 5483 5476
5548 5551 5552 5556 5563 5567 5572 5572 5571 5572 5573 5576 5578 5578 5579 5581 5581 5580 5579 5578 5578 5577 5576 5574 5573 5571 5569 5565 5561 5557 5553 5547 5543 5538 5531 5526 5520 5514 5508 5501 5494 5487 5480 5473
5530 5539 5538 5547 5554 5550 5557 5556 5555 5558 5561 5563 5566 5567 5569 5569 5569 5568 5568 5568 5568 5568 5566 5565 5564 5562 5559 5556 5552 5549 5544 5539 5535 5531 5525 5518 5514 5508 5502 5497 5490 5484 5477 5470
Wind_Speed
33 31 28 30 28 28 28 27 26 26 27 27 25 21 24 23 24 25 27 27 31 35 38 40 42 45 49 53 55 57 60 64 66 67 69 73 76 77 77 73 57 48 44 42
34 33 31 32 31 32 30 28 27 29 30 30 27 23 24 25 26 27 29 30 34 37 39 41 42 45 50 53 55 57 60 63 64 68 69 74 76 76 76 66 55 51 43 43
30 32 33 33 33 33 33 29 29 31 32 31 30 25 23 24 27 30 30 32 36 38 39 42 44 46 50 53 55 57 61 62 64 66 70 74 75 75 69 58 51 45 44 44
27 29 31 32 32 33 34 32 32 34 34 33 32 30 22 25 26 32 34 34 36 39 40 42 44 48 51 54 54 58 60 61 64 66 70 74 75 75 68 55 51 45 45 47
24 26 29 28 30 32 34 34 33 35 35 35 32 35 22 24 27 32 35 36 37 39 40 42 45 48 51 53 54 57 57 59 64 66 70 73 75 74 64 53 51 46 47 48
24 24 25 26 28 31 32 33 34 36 37 37 31 35 24 24 29 33 36 37 38 39 41 44 45 47 50 51 55 56 56 59 62 65 70 72 73 73 60 52 50 47 46 46
25 25 24 25 28 30 30 31 35 37 37 39 33 34 25 26 30 34 35 36 39 40 42 44 46 47 49 51 53 53 55 58 62 65 69 72 71 70 58 53 52 49 44 36
25 25 23 23 25 26 29 30 33 38 37 39 34 33 26 25 31 34 35 37 39 40 41 43 46 47 47 51 52 51 54 57 61 65 68 72 70 66 57 54 54 46 38 36
26 26 24 24 24 25 25 28 29 34 37 40 36 35 28 28 31 33 33 37 38 39 41 44 47 46 48 49 49 50 53 56 59 64 68 68 67 65 56 54 53 46 39 41
28 29 26 25 27 25 27 28 29 32 39 41 40 40 30 31 31 34 36 38 39 39 42 45 46 46 49 48 47 48 52 55 59 63 67 66 65 64 55 54 53 48 42 42
30 32 26 29 27 27 29 30 31 33 40 40 40 43 32 30 30 35 37 39 40 42 44 44 46 48 49 46 46 47 50 53 58 62 65 63 63 62 53 52 50 49 46 41
33 37 33 31 30 30 32 30 31 34 38 41 42 39 34 31 32 34 39 41 41 42 43 46 47 48 48 44 44 47 49 51 55 60 63 61 61 60 52 50 50 51 48 46
36 40 38 35 34 32 32 31 35 38 40 39 43 34 32 27 32 35 38 39 39 42 44 46 46 47 45 42 43 46 48 50 54 58 59 59 59 58 50 48 49 49 48 50
42 44 43 40 38 37 37 37 40 41 41 38 35 35 23 28 32 33 36 37 38 45 43 47 45 45 41 41 42 45 46 49 54 56 56 57 58 56 47 47 47 47 47 53
47 47 45 46 45 43 43 43 42 43 36 39 30 37 17 24 32 34 33 36 40 41 44 47 45 42 39 39 41 44 46 48 53 53 54 54 56 53 45 44 48 49 48 51
50 51 52 54 50 47 47 49 44 42 37 35 32 29 25 33 33 32 34 38 41 42 45 44 44 39 38 39 41 42 44 48 51 51 53 53 54 50 45 45 45 51 50 51
55 54 55 57 50 50 52 41 43 41 39 34 36 27 28 30 30 30 37 42 46 46 41 41 39 38 38 39 40 41 42 47 48 49 51 51 50 50 46 46 45 48 51 50
56 58 57 58 53 55 44 44 41 42 41 34 33 26 32 32 32 35 42 44 44 40 37 36 37 37 37 38 38 40 41 45 46 47 49 50 50 48 47 47 47 46 48 48
58 60 60 59 56 52 48 41 41 44 40 33 36 33 38 36 39 34 39 39 39 37 34 36 36 36 35 36 37 40 41 44 44 45 48 49 48 48 47 45 45 45 47 46
60 60 61 59 56 50 42 44 46 46 44 33 38 37 40 39 37 34 37 41 37 33 33 37 35 34 34 36 37 39 40 41 42 44 47 48 46 47 48 46 42 42 44 44
59 60 61 59 56 47 43 49 49 49 42 44 39 38 39 38 39 37 39 39 34 31 34 35 33 32 34 36 36 38 39 39 40 44 46 47 45 44 45 46 43 39 42 44
61 60 59 62 57 46 39 44 44 44 48 44 44 45 45 40 37 36 37 36 32 31 33 33 32 31 34 34 36 38 38 39 39 42 44 44 44 42 43 44 44 40 39 41
59 57 55 56 46 41 42 41 41 41 43 43 46 47 43 36 33 33 34 35 34 33 34 32 31 32 33 33 36 36 37 38 38 42 44 45 42 41 42 42 44 41 40 39
53 49 51 48 40 36 38 36 40 40 40 42 44 42 40 37 32 35 36 37 36 34 34 31 30 32 32 33 35 34 36 38 38 40 42 44 43 39 40 41 42 42 41 39
54 53 51 47 40 37 30 32 32 33 41 45 41 40 40 39 37 38 37 35 34 36 33 31 30 32 31 32 33 34 36 38 39 40 41 43 43 40 37 38 39 41 40 40
60 55 54 45 39 42 36 36 39 41 41 41 44 44 37 40 40 40 35 34 35 34 30 31 31 32 31 33 32 34 35 38 39 39 40 41 42 38 37 37 39 39 39 39
Wind_Direction
266 269 270 270 270 271 276 279 282 283 282 282 281 281 279 283 283 288 295 305 308 311 314 313 316 322 325 325 324 327 327 326 327 329 331 334 338 339 336 333 330 329 327 323
264 266 266 267 270 272 272 277 280 281 282 282 285 286 281 283 283 288 296 304 306 309 312 314 320 323 324 324 325 327 327 326 330 331 333 337 339 338 337 334 332 331 329 325
270 262 262 264 267 270 274 276 278 281 282 285 288 288 283 280 285 290 295 301 303 307 312 315 320 323 324 324 326 327 326 328 332 334 338 341 339 339 337 334 331 330 329 328
272 268 263 262 266 270 272 274 277 279 284 288 288 289 282 279 281 288 296 301 303 307 311 316 321 323 324 325 327 326 326 331 333 335 339 341 339 339 337 337 336 333 333 333
276 270 265 266 267 267 270 273 276 280 282 283 288 289 289 278 279 289 296 300 302 307 312 318 322 321 324 325 326 325 328 333 334 337 341 341 340 339 339 341 339 333 333 334
273 272 270 268 266 268 271 273 276 278 282 285 288 286 296 289 290 296 300 300 301 307 313 319 321 321 324 326 325 325 329 333 334 340 342 342 340 340 340 341 339 334 330 332
269 270 270 270 270 270 269 270 274 277 281 288 286 285 303 299 295 298 301 301 302 306 313 318 320 322 324 325 323 326 330 333 336 340 343 342 340 340 342 341 340 337 335 339
267 270 271 271 271 271 269 270 273 281 283 283 282 291 300 299 297 300 300 300 301 306 313 318 320 322 323 322 322 327 329 333 337 341 343 342 340 342 344 343 341 343 343 342
268 269 268 270 268 268 276 276 275 279 282 286 290 292 298 299 299 297 299 299 302 308 314 318 320 321 321 320 323 326 330 334 339 342 343 342 340 345 346 344 342 341 337 339
265 269 269 268 270 273 276 273 273 279 282 286 293 293 301 300 301 296 298 300 303 310 314 319 320 321 319 318 322 325 330 335 340 342 343 343 343 346 347 345 345 348 340 336
262 262 264 266 273 273 273 273 273 276 280 289 293 292 309 310 299 297 300 300 305 314 318 319 319 320 317 318 321 325 331 336 339 342 342 343 345 347 348 346 349 350 348 342
256 260 261 265 269 271 272 275 278 277 281 281 290 302 308 305 294 297 296 297 307 315 318 315 320 317 315 317 320 325 331 336 339 341 342 344 347 347 347 347 349 349 347 347
254 258 263 262 265 271 272 271 271 275 277 286 293 311 316 302 291 286 287 296 309 312 314 317 319 313 312 315 320 325 331 335 339 341 343 345 349 348 348 347 347 348 349 349
256 255 258 264 267 269 270 269 270 273 280 295 297 303 316 297 290 288 289 301 307 310 313 317 316 311 311 314 320 325 330 334 338 341 344 348 349 348 348 351 351 352 353 356
253 256 258 260 262 265 268 269 271 275 284 286 304 294 317 288 281 292 298 301 307 311 310 313 311 310 310 315 321 325 330 333 336 341 345 349 349 349 347 351 354 353 353 354
249 254 256 257 260 264 266 268 274 279 284 288 293 299 289 282 288 291 296 303 309 309 308 309 308 308 309 317 320 326 329 333 334 341 346 350 349 349 344 345 347 352 354 355
247 249 255 261 263 266 265 273 276 279 282 288 290 299 287 283 291 295 300 305 304 303 305 306 308 307 312 315 320 325 328 330 333 341 345 350 349 348 344 341 345 345 352 355
247 250 253 258 262 263 275 275 275 277 279 284 285 287 281 284 289 296 300 299 305 305 306 305 309 309 312 314 321 324 327 327 332 340 343 347 351 347 347 340 341 344 349 354
249 250 254 258 262 269 273 280 281 276 277 285 286 276 271 279 285 300 296 302 303 303 304 309 310 310 311 313 321 324 325 324 332 338 341 344 348 348 346 345 339 343 347 351
250 251 253 259 261 268 275 276 276 279 278 290 278 276 273 275 282 290 297 301 302 299 306 307 309 307 309 313 321 323 322 322 330 336 340 342 343 347 346 346 342 340 344 347
251 253 255 259 260 265 269 271 276 279 293 278 280 279 276 277 283 289 293 297 295 299 303 304 304 304 308 314 320 320 318 320 328 336 338 340 339 343 345 346 346 340 340 345
253 254 254 256 259 260 276 275 275 278 276 280 277 281 279 287 290 291 295 292 290 294 297 301 301 304 307 313 318 317 314 317 328 333 338 338 336 338 342 345 348 345 339 340
254 255 259 259 265 262 263 269 273 270 270 273 277 278 277 281 288 294 291 285 289 290 296 299 299 302 304 312 314 314 312 315 324 330 334 335 336 332 338 344 345 349 346 342
256 257 256 258 256 268 261 261 264 266 261 262 271 272 268 277 282 286 282 283 290 291 295 295 295 298 302 308 310 312 308 311 319 326 330 333 335 331 333 339 343 345 348 346
249 254 249 255 252 265 268 267 259 257 255 255 262 271 272 272 274 281 277 282 289 288 290 290 290 293 301 304 306 308 307 309 313 321 326 330 333 329 328 333 338 340 344 348
243 245 253 259 262 256 256 258 253 251 256 255 261 268 271 272 275 276 269 277 282 284 286 285 287 293 296 300 302 302 304 304 308 316 323 327 331 326 323 328 331 336 339 343